Location: Newark
(44.4156°N, 12.1972°E)
Time: 00:15:34
(UTC+00:00)

STARLINK-1093 - Pass Details

Date: 31 January 2020
Orbit: 348 x 351 km, 53.0° (Epoch: 17 February)

Event Time Altitude Azimuth Distance (km) Brightness Sun altitude
Rises 16:51:09 0° 306° (NW) 2,179 7.2 -6.3°
Reaches altitude 10° 16:53:14 10° 315° (NW) 1,333 6.0 -6.7°
Maximum altitude 16:56:04 39° 26° (NNE) 552 3.3 -7.2°
Drops below altitude 10° 16:58:53 10° 98° (E) 1,331 5.0 -7.6°
Enters shadow 16:59:12 - 100° (E) 1,458 5.2 -7.7°
